sat.trackr.live / text

‹ back to catalog

RAPTOR2

NORAD 58959 · 2024-028E

PAYLOAD ACTIVE UNKNOWN

§ Identity

Operator
Country
US
Launch date
2024-02-14
Launch site
AFETR
Launch vehicle
Mass (kg)
RCS (m²)

External: N2YO · Heavens-Above · Gunter

§ Orbital elements

Epoch: 2026-05-25T00:53:09.087072Z

Period
105.07 min
Inclination
39.9886°
Eccentricity
0.0010850
Mean motion
13.70554774 rev/d
Perigee alt
989.6 km
Apogee alt
1,005.6 km
Semi-major
7,375.7 km
B*
3.7488e-5
RAAN
149.3263°
Arg perigee
126.2857°
Mean anomaly
233.8893°
Rev number
11,389

§ Raw data

RAPTOR21 58959U 24028E   26145.03691073 -.00000044  00000+0  37488-4 0  99912 58959  39.9886 149.3263 0010850 126.2857 233.8893 13.70554774113895

JSON: /api/v1/satellites/58959 · /tle

For live sub-satellite position, see the globe view (requires WebGL).

§ Visibility from observer

Set your observer location to see the next 7 days of passes ≥ 10°. The values pass through the URL so the page stays shareable.

No JS? Fill the form by hand. The geolocation button needs JavaScript.